Voltar ao catálogo

FREGAT DEB

AtivoUNKNOWN
NORAD 45815·DEBRIS·🇷🇺 Russia

Lançado Jul 18, 2011 de Baikonur Cosmodrome

Loading…

Próximas Passagens (próximas 24 horas)

TLE

AtualizadoSource: Space-Track

Época: Sep 14, 2026, 14:37 UTC

1 45815U 11037AZ  26257.60904883  .00000261  00000-0  29788-3 0  9991
2 45815  51.4400 345.4659 1581553  95.1248 283.1267 11.48960443259940

Acompanhe FREGAT DEB em tempo real com AllMySat

Download on the App Store